Content
SEND FEEDBACK

Daily
Averages
Monthly
Summary
United States of America

CHARLEVOIX, MICHIGAN


Home > North America > United States > Michigan
Elevation: 642 feet     Latitude: 45 18N     Longitude: 085 16W

WEATHER
 
SELECT A DAY
Number of Records: 332,872;   Date Range: 1/21/01 - 7/29/14
 
SHARE

PRINT THIS DATA

[ ← Previous Day ]
WEATHER ALMANAC - JANUARY 31, 2013
[ Next Day → ]
[ °C ]   °F
Weather ElementAverageHighLow
Temperature17.5 °F19 °F (12:35 am)16.2 °F (9:34 am)
Dewpoint12.1 °F15.4 °F (3:34 pm)8.6 °F (9:55 am)
Humidity79.2 %91 % (3:15 pm)71 % (9:55 am)
Barometer29.58 in29.84 in (11:15 pm)29.27 in (12:35 am)
Wind Speed17 mph25.3 mph (8:55 pm)
Wind Gust35.7 mph (8:15 pm)
Weather ElementAverage
Visibility2.8 mi
Wind DirectionNW (319.1 °)

Weather ElementTotal
Precipitation---
Heating Degree Days47.4 (Base 65)
Averaged from 68 records on January 31, 2013
WEATHER CONDITIONS BREAKOUT
WIND DIRECTION BREAKOUT
WEATHER BY HOUR - JANUARY 31, 2013
[ °C ]   °F
Local TimeTemperatureDewpointHumidityBarometerVisibilityWind DirectionWind SpeedGust SpeedPrecipitationEventsConditions
12:35 AM19.0 °F12.7 °F76 %29.27 in5.0 miNNW (330°)16.1 mph25.3 mphHaze
12:55 AM19.0 °F14.2 °F81 %29.28 in2.5 miNW (320°)17.3 mph21.9 mphSnowLight Snow
1:15 AM18.5 °F13.6 °F81 %29.29 in3.0 miNNW (330°)13.8 mph23.0 mphSnowLight Snow
1:35 AM18.3 °F13.1 °F80 %29.30 in3.0 miNW (320°)18.4 mph23.0 mphSnowLight Snow
1:55 AM17.6 °F12.4 °F80 %29.31 in2.5 miNNW (330°)17.3 mph25.3 mphSnowLight Snow
2:15 AM17.6 °F12.9 °F82 %29.32 in1.8 miNW (320°)16.1 mph24.2 mphSnowLight Snow
2:35 AM17.2 °F11.7 °F79 %29.33 in2.5 miNNW (330°)15.0 mph25.3 mphSnowLight Snow
2:55 AM17.2 °F12.2 °F81 %29.34 in2.0 miNNW (330°)15.0 mph24.2 mphSnowLight Snow
3:15 AM16.7 °F12.0 °F82 %29.35 in2.5 miNW (320°)18.4 mph24.2 mphSnowLight Snow
3:35 AM17.1 °F12.4 °F82 %29.36 in2.5 miNNW (330°)13.8 mph21.9 mphSnowLight Snow
3:55 AM17.2 °F13.1 °F84 %29.36 in2.5 miNNW (330°)10.4 mphSnowLight Snow
4:15 AM17.2 °F10.4 °F75 %29.37 in2.5 miNW (310°)18.4 mph26.5 mphSnowLight Snow
4:35 AM17.4 °F12.0 °F79 %29.38 in2.0 miNW (310°)18.4 mph25.3 mphSnowLight Snow
4:55 AM17.2 °F11.8 °F79 %29.39 in1.5 miNW (320°)19.6 mph27.6 mphSnowLight Snow
5:15 AM17.4 °F11.5 °F78 %29.40 in2.0 miNW (310°)16.1 mph24.2 mphSnowLight Snow
5:35 AM17.4 °F11.1 °F76 %29.41 in2.5 miNW (320°)19.6 mph28.8 mphSnowLight Snow
5:55 AM17.1 °F9.9 °F73 %29.41 in3.0 miNW (310°)20.7 mph27.6 mphSnowLight Snow
6:15 AM17.1 °F9.9 °F73 %29.42 in4.0 miNW (320°)16.1 mph25.3 mphHaze
6:34 AM17.1 °F10.2 °F75 %29.43 in5.0 miNW (320°)17.3 mph28.8 mphHaze
6:55 AM16.7 °F10.0 °F75 %29.44 in4.0 miNNW (330°)19.6 mph28.8 mphSnowLight Snow
7:14 AM16.7 °F10.6 °F77 %29.45 in4.0 miNNW (330°)17.3 mph27.6 mphSnowLight Snow
7:34 AM16.7 °F10.4 °F76 %29.47 in4.0 miNNW (330°)19.6 mph27.6 mphSnowLight Snow
7:54 AM16.7 °F11.3 °F79 %29.48 in2.5 miNW (320°)18.4 mph25.3 mphSnowLight Snow
8:15 AM16.5 °F10.2 °F76 %29.49 in2.5 miNNW (330°)16.1 mph27.6 mphHaze
8:34 AM16.7 °F10.9 °F78 %29.51 in4.0 miNW (320°)18.4 mph24.2 mphSnowLight Snow
8:55 AM16.3 °F10.2 °F77 %29.51 in4.0 miNNW (330°)20.7 mph26.5 mphSnowLight Snow
9:15 AM16.3 °F9.3 °F74 %29.52 in5.0 miNW (320°)20.7 mph26.5 mphHaze
9:34 AM16.2 °F9.0 °F73 %29.53 in5.0 miNW (320°)17.3 mph24.2 mphHaze
9:55 AM16.5 °F8.6 °F71 %29.54 in10.0 miNNW (330°)17.3 mph25.3 mphOvercast
10:35 AM16.7 °F9.0 °F72 %29.56 in7.0 miNNW (330°)16.1 mph24.2 mphOvercast
10:55 AM17.2 °F9.1 °F71 %29.58 in10.0 miNNW (330°)16.1 mph25.3 mphOvercast
11:15 AM17.2 °F9.5 °F72 %29.59 in4.0 miNNW (330°)17.3 mph25.3 mphHaze
11:35 AM17.4 °F10.2 °F73 %29.60 in2.0 miNNW (330°)15.0 mph23.0 mphSnowLight Snow
11:59 AM17.4 °F12.0 °F79 %29.61 in1.0 miNNW (330°)13.8 mph17.3 mphSnowLight Snow
12:15 PM17.6 °F13.1 °F83 %29.61 in0.8 miNW (320°)15.0 mph19.6 mphSnowLight Snow
12:35 PM17.4 °F13.1 °F83 %29.61 in0.5 miNW (320°)12.7 mph21.9 mphSnowSnow
12:54 PM17.6 °F14.2 °F86 %29.61 in0.5 miWNW (300°)15.0 mph19.6 mphSnowLight Snow
1:15 PM18.5 °F13.6 °F81 %29.62 in1.5 miWNW (290°)13.8 mph20.7 mphSnowLight Snow
1:35 PM17.6 °F14.0 °F86 %29.62 in0.2 miNW (320°)15.0 mphSnowSnow
1:54 PM17.4 °F14.5 °F88 %29.63 in0.2 miNNW (330°)11.5 mph19.6 mphSnowSnow
2:15 PM17.6 °F14.9 °F89 %29.63 in0.2 miNW (320°)13.8 mph18.4 mphSnowSnow
2:35 PM17.6 °F14.0 °F86 %29.64 in0.5 miNW (320°)13.8 mph19.6 mphSnowSnow
2:55 PM17.4 °F14.7 °F89 %29.65 in0.2 miNW (310°)13.8 mph19.6 mphSnowHeavy Snow
3:15 PM17.2 °F14.9 °F91 %29.66 in0.2 miNNW (330°)11.5 mph17.3 mphSnowHeavy Snow
3:34 PM18.1 °F15.4 °F89 %29.66 in0.2 miNW (310°)16.1 mph23.0 mphSnowSnow
3:55 PM18.0 °F14.5 °F86 %29.67 in0.8 miWNW (300°)19.6 mph24.2 mphSnowLight Snow
4:15 PM18.7 °F14.5 °F84 %29.68 in1.0 miWNW (300°)17.3 mph26.5 mphSnowLight Snow
4:35 PM18.7 °F12.7 °F78 %29.69 in1.5 miWNW (300°)19.6 mphSnowLight Snow
4:55 PM18.5 °F12.7 °F78 %29.70 in10.0 miNNW (330°)12.7 mph18.4 mphOvercast
5:15 PM18.7 °F10.9 °F72 %29.71 in3.0 miNW (310°)17.3 mph23.0 mphSnowLight Snow
5:35 PM18.3 °F13.5 °F81 %29.72 in1.5 miWNW (300°)13.8 mph21.9 mphSnowLight Snow
5:55 PM18.7 °F12.4 °F76 %29.73 in2.0 miNW (320°)19.6 mph26.5 mphSnowLight Snow
6:15 PM18.5 °F10.9 °F72 %29.74 in5.0 miNNW (330°)13.8 mph23.0 mphSnowLight Snow
6:35 PM18.5 °F10.8 °F72 %29.74 in7.0 miNNW (330°)13.8 mph23.0 mphOvercast
6:55 PM18.3 °F11.7 °F75 %29.75 in4.0 miNNW (330°)15.0 mph24.2 mphSnowLight Snow
7:15 PM18.1 °F12.0 °F77 %29.76 in5.0 miNNW (330°)18.4 mph23.0 mphSnowLight Snow
7:35 PM18.3 °F11.7 °F75 %29.77 in7.0 miNW (320°)16.1 mph21.9 mphOvercast
7:55 PM17.2 °F13.6 °F86 %29.78 in0.8 miNW (310°)17.3 mph26.5 mphSnowSnow
8:15 PM17.6 °F13.1 °F83 %29.78 in0.8 miNW (310°)24.2 mph35.7 mphSnowSnow
8:35 PM17.4 °F11.8 °F79 %29.79 in1.2 miNW (310°)21.9 mph31.1 mphSnowLight Snow
8:55 PM17.6 °F11.5 °F77 %29.80 in1.5 miNW (310°)25.3 mph31.1 mphSnowLight Snow
9:15 PM17.4 °F12.9 °F83 %29.80 in1.2 miWNW (300°)20.7 mph29.9 mphSnowLight Snow
9:35 PM17.2 °F13.8 °F86 %29.81 in0.8 miNW (310°)21.9 mph29.9 mphSnowSnow
10:15 PM17.6 °F12.7 °F81 %29.82 in1.5 miWNW (300°)15.0 mph27.6 mphSnowLight Snow
10:35 PM17.6 °F13.1 °F83 %29.82 in1.8 miNW (310°)20.7 mph26.5 mphSnowLight Snow
11:15 PM17.6 °F11.8 °F78 %29.84 in2.0 miNW (310°)17.3 mph27.6 mphSnowLight Snow
11:35 PM17.6 °F11.8 °F78 %29.84 in1.5 miNW (320°)20.7 mph28.8 mphSnowLight Snow
11:54 PM17.4 °F11.3 °F77 %29.84 in2.5 miNW (320°)17.3 mph25.3 mphSnowLight Snow
Hourly data recorded from KCVX, located miles away from Charlevoix, Michigan







STORIES FROM OUR PARTNERS